DIAMOND RED (42783 NORAD) Tracking and Keplerian Element Data
This shows tracking and keplerian element data for the satellite.
Feedback or suggestion? Click here.
Element | Value |
Catalog | 42783 |
Name | DIAMOND RED |
Epoch Orbit | 19884 |
Epoch Day | 20.87831474 |
Epoch Year | 2021 |
RAAN | 74.011 |
Inclination | 97.2726 |
Eccentricity | 0.0011319 |
Argument of Perigee | 350.6588 |
Mean Anonmoly | 9.4437 |
Mean Motion | 15.2340333 |
Decay Rate | 1.14E-05 |
L1 | 1 42783U 17036U 21020.87831474 .00001140 00000-0 50717-4 0 9998 |
L2 | 2 42783 97.2726 74.0110 0011319 350.6588 9.4437 15.23403330198843 |
Live tracking and technical data element details for DIAMOND RED (NORAD 42783). DIAMOND RED can be tracked NOW for your location showing map with azimuth and elevation plus other details from your city location.
Track the satellite on the map from your city or location and see movement details for azimuth, elevation, latitude, longitude, range, height, and movement on the map or in text.
IsCatalogInMostPopularTable: catalog: 42783, numindb: 805
Update: records affected: 1
GetName: 42783 DIAMOND RED
Hit Count: updated at: Sat, 23 Jan 2021 05:00:50 GMT